Regional Weather Roundup
Issued by NWS

Home | Current Version | Previous Version | Graphics & Text | Print | Product List | Glossary On
Versions: 1 2 3 4 5 6 7 8 9 10 11 12 13 14 15 16 17 18 19 20 21 22 23 24 25 26 27 28 29 30 31 32 33 34 35 36 37 38 39 40 41 42 43 44 45 46 47 48 49 50
000
ASUS43 KLMK 212210
RWRKY
KENTUCKY REGIONAL WEATHER ROUNDUP
NATIONAL WEATHER SERVICE LOUISVILLE KY
600 PM EDT WED JUN 21 2017

NOTE "FAIR" INDICATES FEW OR NO CLOUDS BELOW 12,000 FEET
WITH NO SIGNIFICANT WEATHER AND/OR OBSTRUCTIONS TO VISIBILITY.

KYZ001>023-026-027-061>063-070>075-212300-
WESTERN AND SOUTH CENTRAL KENTUCKY

CITY           SKY/WX    TMP DP  RH WIND       PRES   REMARKS
PADUCAH        MOSUNNY   87  70  56 S3        29.96F HX  92
HENDERSON      CLOUDY    85  71  63 S9        29.98F HX  90
OWENSBORO      MOSUNNY   87  68  52 SW14      29.98F HX  90
HOPKINSVILLE   CLOUDY    83  65  54 S6        30.00F
BOWLING GREEN  CLOUDY    85  65  51 S10       30.02S
GLASGOW        MOSUNNY   83  64  53 SW5       30.03S
$$

KYZ024-025-028>034-038-045-046-053-212300-
NORTH CENTRAL KENTUCKY

CITY           SKY/WX    TMP DP  RH WIND       PRES   REMARKS
LOUISVILLE/SDF CLOUDY    88  66  48 SW17      29.98R HX  90
LOUISVILLE/LOU CLOUDY    88  67  49 S15G24    29.98S HX  91
FORT KNOX      CLOUDY    86  66  52 S12       29.99S
$$

KYZ035>037-039>044-047>052-055>060-089>105-212300-
NORTHEAST KENTUCKY

CITY           SKY/WX    TMP DP  RH WIND       PRES   REMARKS
LEXINGTON      CLOUDY    86  63  45 SW16G22   30.01F
COVINGTON      PTSUNNY   87  67  51 VRB7      29.96S HX  90
FRANKFORT      CLOUDY    86  64  47 SW14      29.99S
$$

KYZ054-064>069-076>088-106>120-212300-
SOUTHEAST KENTUCKY

CITY           SKY/WX    TMP DP  RH WIND       PRES   REMARKS
JACKSON        MOSUNNY   83  66  56 CALM      30.05F
LONDON         CLOUDY    83  61  47 SW9       30.06F
SOMERSET       CLOUDY    81  61  50 W8        30.06F
MIDDLESBORO    CLOUDY    82  64  54 S6        30.08F
MONTICELLO     MOCLDY    84  67  56 SW12      30.07F
$$





USA.gov is the U.S. government's official web portal to all federal, state and local government web resources and services.